Location: Palmerston North
(40.3500°S, 175.6170°E)
Time: 19:04:03
(UTC+13:00)

ISS - Pass Details

Date: 30 January 2019
Orbit: 411 x 421 km, 51.6° (Epoch: 23 October)

Event Time Altitude Azimuth Distance (km) Brightness Sun altitude
Exits shadow 05:27:17 14° 292° (WNW) 1,269 -2.0 -10.0°
Maximum altitude 05:30:01 58° 214° (SW) 497 -3.4 -9.5°
Drops below altitude 10° 05:33:23 10° 133° (SE) 1,514 0.6 -9.0°
Sets 05:35:31 0° 129° (SE) 2,381 2.4 -8.7°
